Weather History for KMVL - September, 2013

Change the Weather History Date:

Monday, September 2, 2013

  Actual Average Record
Temperature  
Mean Temperature 71 °F 62 °F  
Max Temperature 80 °F 75 °F - ()
Min Temperature 62 °F 50 °F - ()
Degree Days  
Heating Degree Days 0 4  
Month to date heating degree days 0 8  
Since 1 July heating degree days 69 103  
Cooling Degree Days 6 1  
Month to date cooling degree days 16 2  
Year to date cooling degree days 379 249  
Growing Degree Days 21 (Base 50)    
Moisture  
Dew Point 65 °F    
Average Humidity 80    
Maximum Humidity 93    
Minimum Humidity 67    
Precipitation  
Precipitation 0.30 in 0.09 in - ()
Month to date precipitation 0.31 0.18  
Year to date precipitation 30.57 23.94  
Sea Level Pressure  
Sea Level Pressure 29.79 in    
Wind  
Wind Speed 2 mph (SSE)    
Max Wind Speed 13 mph    
Max Gust Speed 22 mph    
Visibility 9 miles    
Events Rain , Thunderstorm    
T = Trace of Precipitation, MM = Missing Value Source: NWS Daily Summary

Daily Weather History Graph

Daily Weather History Graph

Search for Another Location

Airport or City:

Trip Planner

Search our weather history database for the weather conditions in past years. The results will help you decide how hot, cold, wet, or windy it might be!

Date:

Astronomy

Sep. 02, 2013 Rise Set
Actual Time 6:14 AM EDT 7:24 PM EDT
Civil Twilight 5:44 AM EDT 7:54 PM EDT
Nautical Twilight 5:08 AM EDT 8:30 PM EDT
Astronomical Twilight 4:30 AM EDT 9:08 PM EDT
Moon 3:24 AM EDT (9/2) 5:39 PM EDT (9/2)
Length of Visible Light 14h 10m
Length of Day
13h 10m
Waning Crescent, 8% of the Moon is Illuminated
Sep 2
Waning Crescent
Sep 5
New
Sep 12
First Quarter
Sep 19
Full
Sep 26
Last Quarter

Hourly Weather History & Observations

Time (EDT) Temp. Dew Point Humidity Pressure Visibility Wind Dir Wind Speed Gust Speed Precip Events Conditions
12:54 AM 66.0 °F 64.0 °F 93% 29.86 in 9.0 mi Calm Calm - 0.00 in   Mostly Cloudy
1:54 AM 66.0 °F 64.0 °F 93% 29.86 in 8.0 mi Calm Calm - N/A   Overcast
2:42 AM 66.2 °F 64.4 °F 94% 29.85 in 9.0 mi Calm Calm - 0.00 in   Overcast
2:54 AM 66.0 °F 64.0 °F 93% 29.83 in 10.0 mi Calm Calm - 0.00 in   Overcast
3:25 AM 64.4 °F 64.4 °F 100% 29.83 in 9.0 mi ENE 3.5 mph - N/A   Scattered Clouds
3:46 AM 66.2 °F 64.4 °F 94% 29.83 in 10.0 mi Calm Calm - N/A   Mostly Cloudy
3:54 AM 66.0 °F 64.0 °F 93% 29.82 in 10.0 mi Calm Calm - N/A   Mostly Cloudy
4:36 AM 66.2 °F 64.4 °F 94% 29.82 in 10.0 mi Calm Calm - N/A   Overcast
4:54 AM 66.9 °F 64.9 °F 93% 29.81 in 10.0 mi Calm Calm - N/A   Overcast
5:10 AM 66.2 °F 64.4 °F 94% 29.83 in 9.0 mi Calm Calm - N/A   Overcast
5:54 AM 68.0 °F 64.9 °F 90% 29.83 in 10.0 mi Calm Calm - N/A   Overcast
6:23 AM 66.2 °F 66.2 °F 100% 29.83 in 2.0 mi Calm Calm - 0.05 in Rain Light Rain
6:32 AM 68.0 °F 66.2 °F 94% 29.83 in 9.0 mi Calm Calm - 0.05 in   Overcast
6:54 AM 68.0 °F 66.0 °F 93% 29.82 in 6.0 mi Calm Calm - 0.05 in   Mostly Cloudy
7:54 AM 69.1 °F 66.0 °F 90% 29.81 in 9.0 mi Calm Calm - N/A   Overcast
8:11 AM 69.8 °F 66.2 °F 88% 29.82 in 8.0 mi Calm Calm - N/A   Overcast
8:54 AM 70.0 °F 66.9 °F 90% 29.81 in 9.0 mi Calm Calm - N/A   Overcast
9:49 AM 71.6 °F 68.0 °F 88% 29.81 in 10.0 mi Calm Calm - 0.00 in   Overcast
9:54 AM 71.1 °F 68.0 °F 90% 29.81 in 10.0 mi Calm Calm - 0.00 in   Overcast
10:54 AM 72.0 °F 68.0 °F 87% 29.81 in 10.0 mi Calm Calm - 0.00 in   Overcast
11:26 AM 73.4 °F 69.8 °F 88% 29.81 in 10.0 mi Calm Calm - N/A   Overcast
11:54 AM 73.0 °F 68.0 °F 84% 29.80 in 10.0 mi Calm Calm - 0.00 in Rain Light Rain
12:09 PM 73.4 °F 68.0 °F 83% 29.80 in 10.0 mi SE 4.6 mph - 0.00 in   Overcast
12:24 PM 73.4 °F 68.0 °F 83% 29.79 in 10.0 mi Variable 3.5 mph - 0.00 in Rain Light Rain
12:54 PM 75.0 °F 68.0 °F 79% 29.78 in 10.0 mi Calm Calm - 0.00 in   Scattered Clouds
1:54 PM 77.0 °F 68.0 °F 74% 29.76 in 10.0 mi Variable 5.8 mph - N/A   Scattered Clouds
2:54 PM 79.0 °F 66.0 °F 64% 29.74 in 10.0 mi South 6.9 mph - N/A   Scattered Clouds
3:54 PM 79.0 °F 66.0 °F 64% 29.73 in 10.0 mi SSW 5.8 mph - N/A   Mostly Cloudy
4:54 PM 77.0 °F 66.9 °F 71% 29.71 in 10.0 mi Calm Calm - N/A   Mostly Cloudy
5:54 PM 77.0 °F 66.9 °F 71% 29.70 in 10.0 mi Variable 3.5 mph - N/A   Scattered Clouds
6:54 PM 75.0 °F 66.9 °F 76% 29.70 in 10.0 mi SSW 3.5 mph - N/A   Clear
7:54 PM 71.1 °F 66.9 °F 87% 29.71 in 10.0 mi Calm Calm - N/A   Clear
8:54 PM 73.0 °F 62.1 °F 68% 29.73 in 10.0 mi Variable 6.9 mph - 0.00 in Rain Light Rain
9:11 PM 66.2 °F 60.8 °F 83% 29.76 in 1.8 mi SSW 12.7 mph 21.9 mph 0.14 in Rain , Thunderstorm Heavy Thunderstorms and Rain
9:16 PM 66.2 °F 60.8 °F 83% 29.74 in 3.0 mi South 3.5 mph 21.9 mph 0.15 in Rain , Thunderstorm Thunderstorms and Rain
9:54 PM 64.0 °F 62.1 °F 93% 29.74 in 5.0 mi East 6.9 mph - 0.24 in Rain , Thunderstorm Rain
10:03 PM 64.4 °F 60.8 °F 88% 29.75 in 8.0 mi Calm Calm - 0.01 in Rain Light Rain
10:54 PM 63.0 °F 61.0 °F 93% 29.74 in 10.0 mi Calm Calm - 0.01 in   Clear
11:54 PM 63.0 °F 61.0 °F 93% 29.74 in 10.0 mi Calm Calm - N/A   Clear